Location: Austin
(30.3000°N, 97.7500°W)
Time: 00:56:37
(UTC-05:00)

CZ-4B R/B - Pass Details

Date: 11 June 2024
Orbit: 464 x 614 km, 97.9° (Epoch: 21 June)

Event Time Altitude Azimuth Distance (km) Brightness Sun altitude
Rises 20:52:33 0° 166° (SSE) 2,723 5.9 -4.5°
Reaches altitude 10° 20:54:38 10° 166° (SSE) 1,855 5.1 -4.9°
Maximum altitude 20:58:40 87° 78° (ENE) 589 3.0 -5.6°
Drops below altitude 10° 21:02:54 10° 349° (N) 1,941 6.3 -6.4°
Sets 21:05:07 0° 349° (N) 2,861 7.2 -6.8°
